PUA2603 SCFA-SAAR

Flight info

Callsign PUA2603
Flight time 1h 44m
Altitude 37000
Route VADIX3A VADIX DCT CAT DCT ROKER
Aircraft A20N/M-SDE2E3FGHIRWXY/LB1

Departure

Time 2026-04-25 19:27
Airport Andrés Sabella Gálvez International Airport (SCFA)

Arrival

Time 2026-04-25 21:12
Airport Rosario Islas Malvinas International Airport (SAAR)
Time Latitude Longitude Altitude Speed Heading
2026-04-25 19:03 -23.44789 -70.44146 389 ft 0 kts 95°
2026-04-25 19:17 -23.44789 -70.44147 389 ft 0 kts 95°
2026-04-25 19:18 -23.44788 -70.44154 389 ft 2 kts 95°
2026-04-25 19:18 -23.44787 -70.44170 389 ft 2 kts 95°
2026-04-25 19:19 -23.44785 -70.44186 389 ft 2 kts 95°
2026-04-25 19:19 -23.44784 -70.44203 388 ft 2 kts 95°
2026-04-25 19:19 -23.44783 -70.44218 388 ft 0 kts 95°
2026-04-25 19:19 -23.44782 -70.44224 388 ft 2 kts 92°
2026-04-25 19:20 -23.44789 -70.44244 388 ft 2 kts 48°
2026-04-25 19:20 -23.44801 -70.44254 388 ft 2 kts 19°
2026-04-25 19:20 -23.44816 -70.44257 388 ft 2 kts 351°
2026-04-25 19:20 -23.44823 -70.44255 387 ft 1 kts 339°
2026-04-25 19:21 -23.44826 -70.44254 387 ft 0 kts 342°
2026-04-25 19:22 -23.44823 -70.44255 387 ft 1 kts 342°
2026-04-25 19:22 -23.44749 -70.44280 389 ft 11 kts 342°
2026-04-25 19:23 -23.44667 -70.44307 391 ft 11 kts 343°
2026-04-25 19:23 -23.44508 -70.44321 394 ft 12 kts
2026-04-25 19:23 -23.44415 -70.44310 398 ft 14 kts
2026-04-25 19:24 -23.44315 -70.44298 403 ft 14 kts
2026-04-25 19:24 -23.44204 -70.44282 410 ft 17 kts
2026-04-25 19:24 -23.43932 -70.44251 430 ft 20 kts
2026-04-25 19:25 -23.43645 -70.44217 452 ft 16 kts
2026-04-25 19:25 -23.43543 -70.44201 458 ft 12 kts
2026-04-25 19:25 -23.43467 -70.44193 464 ft 12 kts
2026-04-25 19:26 -23.43389 -70.44185 470 ft 8 kts 351°
2026-04-25 19:26 -23.43336 -70.44215 473 ft 9 kts 325°
2026-04-25 19:26 -23.43276 -70.44271 474 ft 13 kts 304°
2026-04-25 19:26 -23.43337 -70.44367 467 ft 27 kts 185°
2026-04-25 19:27 -23.43760 -70.44418 435 ft 100 kts 186°
2026-04-25 19:27 -23.44329 -70.44489 398 ft 145 kts 184°
2026-04-25 19:27 -23.45877 -70.44676 928 ft 173 kts 187°
2026-04-25 19:27 -23.47059 -70.44689 1764 ft 170 kts 174°
2026-04-25 19:28 -23.48220 -70.44486 2469 ft 174 kts 171°
2026-04-25 19:28 -23.49473 -70.44237 2952 ft 190 kts 171°
2026-04-25 19:28 -23.50816 -70.43969 3425 ft 207 kts 171°
2026-04-25 19:28 -23.52320 -70.43676 3828 ft 229 kts 171°
2026-04-25 19:29 -23.53956 -70.43362 4310 ft 247 kts 171°
2026-04-25 19:29 -23.55712 -70.43027 4763 ft 265 kts 171°
2026-04-25 19:29 -23.57567 -70.42673 5416 ft 275 kts 171°
2026-04-25 19:29 -23.59469 -70.42309 6239 ft 277 kts 171°
2026-04-25 19:30 -23.61342 -70.41952 7039 ft 278 kts 171°
2026-04-25 19:30 -23.63266 -70.41587 7754 ft 281 kts 171°
2026-04-25 19:30 -23.65190 -70.41224 8423 ft 285 kts 170°
2026-04-25 19:30 -23.67147 -70.40852 9127 ft 288 kts 170°
2026-04-25 19:31 -23.69142 -70.40473 9826 ft 290 kts 169°
2026-04-25 19:31 -23.71146 -70.40089 10425 ft 296 kts 170°
2026-04-25 19:31 -23.73234 -70.39690 10711 ft 312 kts 170°
2026-04-25 19:31 -23.75444 -70.39269 10983 ft 329 kts 170°
2026-04-25 19:32 -23.77753 -70.38831 11291 ft 343 kts 170°
2026-04-25 19:32 -23.80122 -70.38379 11843 ft 348 kts 170°
2026-04-25 19:32 -23.82516 -70.37921 12445 ft 351 kts 171°
2026-04-25 19:32 -23.84112 -70.37615 12850 ft 354 kts 171°
2026-04-25 19:33 -23.87372 -70.36990 13613 ft 358 kts 171°
2026-04-25 19:33 -23.89844 -70.36515 14168 ft 362 kts 171°
2026-04-25 19:33 -23.92340 -70.36036 14738 ft 365 kts 171°
2026-04-25 19:33 -23.94843 -70.35555 15279 ft 369 kts 172°
2026-04-25 19:34 -23.97417 -70.35060 15813 ft 373 kts 172°
2026-04-25 19:34 -23.99979 -70.34568 16309 ft 376 kts 172°
2026-04-25 19:34 -24.02559 -70.34073 16879 ft 379 kts 172°
2026-04-25 19:34 -24.05166 -70.33571 17407 ft 382 kts 172°
2026-04-25 19:35 -24.07792 -70.33064 17884 ft 385 kts 172°
2026-04-25 19:35 -24.10437 -70.32555 18363 ft 389 kts 173°
2026-04-25 19:35 -24.13142 -70.32034 18828 ft 392 kts 173°
2026-04-25 19:35 -24.15824 -70.31517 19287 ft 395 kts 173°
2026-04-25 19:36 -24.18563 -70.30989 19740 ft 398 kts 173°
2026-04-25 19:36 -24.21293 -70.30462 20174 ft 402 kts 174°
2026-04-25 19:36 -24.24050 -70.29929 20606 ft 405 kts 174°
2026-04-25 19:36 -24.26841 -70.29391 21024 ft 409 kts 174°
2026-04-25 19:37 -24.29649 -70.28849 21448 ft 412 kts 174°
2026-04-25 19:37 -24.32499 -70.28299 21867 ft 415 kts 174°
2026-04-25 19:37 -24.35347 -70.27748 22266 ft 418 kts 175°
2026-04-25 19:37 -24.38255 -70.27185 22707 ft 421 kts 175°
2026-04-25 19:38 -24.41138 -70.26627 23138 ft 424 kts 175°
2026-04-25 19:38 -24.44046 -70.26066 23579 ft 427 kts 175°
2026-04-25 19:38 -24.46999 -70.25495 24032 ft 430 kts 175°
2026-04-25 19:38 -24.49948 -70.24924 24467 ft 433 kts 175°
2026-04-25 19:39 -24.52935 -70.24344 24887 ft 437 kts 175°
2026-04-25 19:39 -24.55957 -70.23758 25302 ft 440 kts 175°
2026-04-25 19:39 -24.58971 -70.23172 25717 ft 443 kts 175°
2026-04-25 19:39 -24.62045 -70.22575 26135 ft 446 kts 175°
2026-04-25 19:40 -24.65075 -70.21986 26535 ft 449 kts 175°
2026-04-25 19:40 -24.68172 -70.21384 26921 ft 452 kts 175°
2026-04-25 19:40 -24.71298 -70.20775 27314 ft 455 kts 175°
2026-04-25 19:40 -24.74432 -70.20152 27727 ft 459 kts 173°
2026-04-25 19:41 -24.77509 -70.19070 28065 ft 471 kts 160°
2026-04-25 19:41 -24.80333 -70.17245 28393 ft 482 kts 146°
2026-04-25 19:41 -24.82862 -70.14734 28754 ft 489 kts 138°
2026-04-25 19:41 -24.84463 -70.12943 29070 ft 489 kts 137°
2026-04-25 19:42 -24.87580 -70.09370 29668 ft 488 kts 137°
2026-04-25 19:42 -24.89918 -70.06692 30089 ft 487 kts 137°
2026-04-25 19:42 -24.92268 -70.04023 30515 ft 486 kts 138°
2026-04-25 19:42 -24.94627 -70.01360 30913 ft 486 kts 138°
2026-04-25 19:43 -24.97001 -69.98692 31323 ft 484 kts 139°
2026-04-25 19:43 -24.99367 -69.96037 31718 ft 483 kts 139°
2026-04-25 19:43 -25.01720 -69.93401 32075 ft 483 kts 139°
2026-04-25 19:43 -25.04077 -69.90760 32415 ft 483 kts 139°
2026-04-25 19:44 -25.06400 -69.88155 32765 ft 482 kts 140°
2026-04-25 19:44 -25.08760 -69.85510 33159 ft 481 kts 140°
2026-04-25 19:44 -25.11096 -69.82891 33538 ft 480 kts 140°
2026-04-25 19:44 -25.13427 -69.80276 33905 ft 479 kts 140°
2026-04-25 19:45 -25.15784 -69.77629 34261 ft 479 kts 140°
2026-04-25 19:45 -25.18092 -69.75038 34607 ft 478 kts 140°
2026-04-25 19:45 -25.20421 -69.72417 34942 ft 477 kts 140°
2026-04-25 19:45 -25.22756 -69.69789 35281 ft 477 kts 140°
2026-04-25 19:46 -25.25053 -69.67206 35617 ft 476 kts 140°
2026-04-25 19:46 -25.27378 -69.64586 35899 ft 476 kts 140°
2026-04-25 19:46 -25.29686 -69.61987 36115 ft 477 kts 140°
2026-04-25 19:46 -25.32009 -69.59370 36309 ft 479 kts 140°
2026-04-25 19:47 -25.34363 -69.56715 36514 ft 480 kts 140°
2026-04-25 19:47 -25.36688 -69.54088 36721 ft 481 kts 140°
2026-04-25 19:47 -25.39037 -69.51436 36903 ft 482 kts 140°
2026-04-25 19:47 -25.41385 -69.48782 37060 ft 484 kts 140°
2026-04-25 19:48 -25.43727 -69.46133 37260 ft 485 kts 140°
2026-04-25 19:48 -25.46085 -69.43464 37450 ft 486 kts 140°
2026-04-25 19:48 -25.48465 -69.40766 37620 ft 487 kts 140°
2026-04-25 19:48 -25.50849 -69.38064 37618 ft 488 kts 140°
2026-04-25 19:49 -25.54805 -69.33581 37642 ft 489 kts 140°
2026-04-25 19:49 -25.60364 -69.27270 37680 ft 489 kts 140°
2026-04-25 19:50 -25.67509 -69.19144 37717 ft 490 kts 140°
2026-04-25 19:51 -25.72249 -69.13743 37734 ft 490 kts 140°
2026-04-25 19:51 -25.77034 -69.08289 37744 ft 491 kts 140°
2026-04-25 19:52 -25.81783 -69.02866 37751 ft 492 kts 140°
2026-04-25 19:52 -25.86529 -68.97440 37751 ft 491 kts 140°
2026-04-25 19:53 -25.91298 -68.91983 37755 ft 492 kts 140°
2026-04-25 19:53 -25.96035 -68.86556 37758 ft 492 kts 140°
2026-04-25 19:54 -26.00797 -68.81093 37767 ft 493 kts 140°
2026-04-25 19:54 -26.05560 -68.75620 37761 ft 493 kts 140°
2026-04-25 19:55 -26.10327 -68.70135 37745 ft 493 kts 140°
2026-04-25 19:55 -26.15086 -68.64653 37746 ft 492 kts 140°
2026-04-25 19:56 -26.19837 -68.59176 37739 ft 492 kts 140°
2026-04-25 19:56 -26.24576 -68.53708 37736 ft 493 kts 140°
2026-04-25 19:57 -26.29344 -68.48193 37742 ft 493 kts 140°
2026-04-25 19:57 -26.34080 -68.42709 37729 ft 492 kts 140°
2026-04-25 19:58 -26.38827 -68.37215 37725 ft 493 kts 140°
2026-04-25 19:58 -26.43584 -68.31692 37731 ft 493 kts 140°
2026-04-25 19:59 -26.48333 -68.26173 37722 ft 494 kts 139°
2026-04-25 19:59 -26.53072 -68.20660 37716 ft 493 kts 139°
2026-04-25 20:00 -26.57819 -68.15134 37730 ft 494 kts 139°
2026-04-25 20:00 -26.62551 -68.09614 37732 ft 493 kts 139°
2026-04-25 20:01 -26.69665 -68.01300 37734 ft 492 kts 140°
2026-04-25 20:01 -26.74365 -67.95802 37734 ft 492 kts 139°
2026-04-25 20:02 -26.79090 -67.90267 37738 ft 493 kts 139°
2026-04-25 20:02 -26.83846 -67.84691 37727 ft 494 kts 140°
2026-04-25 20:03 -26.88574 -67.79134 37737 ft 494 kts 139°
2026-04-25 20:03 -26.93291 -67.73583 37720 ft 493 kts 140°
2026-04-25 20:04 -26.98005 -67.68034 37704 ft 494 kts 140°
2026-04-25 20:04 -27.02746 -67.62444 37695 ft 495 kts 140°
2026-04-25 20:05 -27.07480 -67.56854 37688 ft 496 kts 140°
2026-04-25 20:05 -27.12219 -67.51251 37668 ft 496 kts 140°
2026-04-25 20:06 -27.17003 -67.45587 37645 ft 498 kts 140°
2026-04-25 20:06 -27.21757 -67.39950 37615 ft 497 kts 140°
2026-04-25 20:07 -27.26504 -67.34315 37580 ft 497 kts 140°
2026-04-25 20:07 -27.31251 -67.28679 37590 ft 500 kts 140°
2026-04-25 20:08 -27.36046 -67.22964 37604 ft 499 kts 140°
2026-04-25 20:08 -27.40801 -67.17303 37536 ft 501 kts 140°
2026-04-25 20:09 -27.45584 -67.11597 37437 ft 502 kts 140°
2026-04-25 20:09 -27.50364 -67.05881 37322 ft 502 kts 140°
2026-04-25 20:10 -27.55134 -67.00172 37236 ft 502 kts 140°
2026-04-25 20:10 -27.59943 -66.94412 37185 ft 503 kts 140°
2026-04-25 20:11 -27.64755 -66.88640 37170 ft 504 kts 140°
2026-04-25 20:11 -27.69537 -66.82893 37159 ft 504 kts 140°
2026-04-25 20:12 -27.74326 -66.77129 37132 ft 504 kts 140°
2026-04-25 20:12 -27.78296 -66.72347 37115 ft 504 kts 140°
2026-04-25 20:13 -27.83897 -66.65588 37086 ft 504 kts 141°
2026-04-25 20:13 -27.88693 -66.59798 37076 ft 506 kts 140°
2026-04-25 20:14 -27.93479 -66.54006 37078 ft 506 kts 141°
2026-04-25 20:14 -27.98290 -66.48177 37073 ft 506 kts 141°
2026-04-25 20:15 -28.03086 -66.42361 37069 ft 507 kts 140°
2026-04-25 20:15 -28.07897 -66.36509 37057 ft 507 kts 141°
2026-04-25 20:16 -28.12686 -66.30687 37061 ft 510 kts 140°
2026-04-25 20:16 -28.17507 -66.24805 37075 ft 507 kts 140°
2026-04-25 20:17 -28.22300 -66.18954 37109 ft 508 kts 141°
2026-04-25 20:17 -28.27115 -66.13085 37150 ft 511 kts 141°
2026-04-25 20:18 -28.31961 -66.07149 37176 ft 510 kts 140°
2026-04-25 20:18 -28.36760 -66.01263 37212 ft 511 kts 141°
2026-04-25 20:19 -28.41580 -65.95348 37189 ft 510 kts 141°
2026-04-25 20:19 -28.46391 -65.89437 37127 ft 511 kts 141°
2026-04-25 20:20 -28.51234 -65.83476 37088 ft 513 kts 141°
2026-04-25 20:20 -28.56061 -65.77522 37027 ft 514 kts 141°
2026-04-25 20:21 -28.60903 -65.71583 36988 ft 512 kts 142°
2026-04-25 20:21 -28.65792 -65.65724 36985 ft 513 kts 142°
2026-04-25 20:22 -28.69902 -65.60786 37000 ft 515 kts 142°
2026-04-25 20:22 -28.75626 -65.53879 37003 ft 515 kts 142°
2026-04-25 20:23 -28.80532 -65.47942 37005 ft 515 kts 142°
2026-04-25 20:23 -28.85418 -65.42024 36998 ft 515 kts 142°
2026-04-25 20:24 -28.90334 -65.36057 36982 ft 515 kts 143°
2026-04-25 20:24 -28.95255 -65.30087 36960 ft 519 kts 142°
2026-04-25 20:25 -29.00182 -65.24090 36946 ft 519 kts 142°
2026-04-25 20:25 -29.05094 -65.18099 36938 ft 519 kts 142°
2026-04-25 20:26 -29.10027 -65.12078 36937 ft 519 kts 142°
2026-04-25 20:26 -29.14954 -65.06052 36935 ft 519 kts 142°
2026-04-25 20:27 -29.19879 -65.00028 36935 ft 520 kts 142°
2026-04-25 20:27 -29.24855 -64.93928 36934 ft 522 kts 142°
2026-04-25 20:28 -29.29836 -64.87805 36939 ft 522 kts 142°
2026-04-25 20:28 -29.34788 -64.81718 36944 ft 522 kts 142°
2026-04-25 20:29 -29.39729 -64.75633 36949 ft 522 kts 142°
2026-04-25 20:29 -29.44656 -64.69555 36948 ft 522 kts 142°
2026-04-25 20:30 -29.49605 -64.63436 36949 ft 521 kts 143°
2026-04-25 20:30 -29.54521 -64.57356 36950 ft 523 kts 143°
2026-04-25 20:31 -29.59467 -64.51227 36951 ft 523 kts 143°
2026-04-25 20:31 -29.64416 -64.45083 36951 ft 524 kts 143°
2026-04-25 20:32 -29.69376 -64.38915 36959 ft 523 kts 143°
2026-04-25 20:32 -29.74290 -64.32794 36961 ft 522 kts 143°
2026-04-25 20:33 -29.79227 -64.26642 36974 ft 523 kts 142°
2026-04-25 20:33 -29.83310 -64.21549 36985 ft 525 kts 143°
2026-04-25 20:34 -29.89079 -64.14330 36995 ft 525 kts 142°
2026-04-25 20:34 -29.94009 -64.08149 37004 ft 525 kts 143°
2026-04-25 20:35 -29.98978 -64.01914 37007 ft 526 kts 143°
2026-04-25 20:35 -30.03913 -63.95704 37012 ft 525 kts 143°
2026-04-25 20:36 -30.08825 -63.89526 37005 ft 526 kts 143°
2026-04-25 20:36 -30.13771 -63.83293 36998 ft 526 kts 143°
2026-04-25 20:37 -30.18716 -63.77043 36988 ft 526 kts 143°
2026-04-25 20:37 -30.23637 -63.70827 36982 ft 528 kts 143°
2026-04-25 20:38 -30.28581 -63.64560 36977 ft 528 kts 143°
2026-04-25 20:38 -30.33516 -63.58289 36969 ft 526 kts 143°
2026-04-25 20:39 -30.38488 -63.51971 36964 ft 527 kts 143°
2026-04-25 20:39 -30.42604 -63.46734 36960 ft 527 kts 143°
2026-04-25 20:40 -30.48384 -63.39363 36954 ft 527 kts 143°
2026-04-25 20:40 -30.53330 -63.33051 36946 ft 528 kts 143°
2026-04-25 20:41 -30.58245 -63.26760 36947 ft 528 kts 143°
2026-04-25 20:41 -30.63224 -63.20379 36945 ft 528 kts 142°
2026-04-25 20:42 -30.68163 -63.14041 36943 ft 529 kts 143°
2026-04-25 20:42 -30.73079 -63.07722 36944 ft 531 kts 142°
2026-04-25 20:43 -30.77998 -63.01379 36941 ft 529 kts 142°
2026-04-25 20:43 -30.82963 -62.94976 36938 ft 530 kts 143°
2026-04-25 20:44 -30.87860 -62.88646 36936 ft 529 kts 143°
2026-04-25 20:44 -30.92790 -62.82269 36937 ft 530 kts 143°
2026-04-25 20:45 -30.97714 -62.75886 36935 ft 529 kts 143°
2026-04-25 20:45 -31.02603 -62.69537 36938 ft 530 kts 143°
2026-04-25 20:46 -31.07535 -62.63119 36939 ft 528 kts 143°
2026-04-25 20:46 -31.12471 -62.56692 36936 ft 529 kts 142°
2026-04-25 20:47 -31.17377 -62.50287 36938 ft 529 kts 142°
2026-04-25 20:47 -31.22292 -62.43862 36920 ft 528 kts 142°
2026-04-25 20:48 -31.24698 -62.40710 36511 ft 528 kts 142°
2026-04-25 20:48 -31.27181 -62.37468 35514 ft 534 kts 142°
2026-04-25 20:48 -31.29647 -62.34242 34367 ft 535 kts 141°
2026-04-25 20:48 -31.32103 -62.31030 33047 ft 538 kts 140°
2026-04-25 20:49 -31.34605 -62.27744 32304 ft 537 kts 140°
2026-04-25 20:49 -31.37067 -62.24503 31622 ft 536 kts 140°
2026-04-25 20:49 -31.39525 -62.21266 30944 ft 535 kts 139°
2026-04-25 20:49 -31.41983 -62.18025 30214 ft 535 kts 139°
2026-04-25 20:50 -31.44454 -62.14764 29537 ft 533 kts 139°
2026-04-25 20:50 -31.46888 -62.11550 28839 ft 530 kts 139°
2026-04-25 20:50 -31.49342 -62.08312 28056 ft 529 kts 138°
2026-04-25 20:50 -31.51780 -62.05089 27426 ft 525 kts 138°
2026-04-25 20:51 -31.54186 -62.01904 26880 ft 519 kts 138°
2026-04-25 20:51 -31.56563 -61.98754 26327 ft 513 kts 137°
2026-04-25 20:51 -31.58894 -61.95663 25770 ft 508 kts 137°
2026-04-25 20:51 -31.61213 -61.92587 25213 ft 503 kts 137°
2026-04-25 20:52 -31.63516 -61.89531 24677 ft 499 kts 137°
2026-04-25 20:52 -31.65055 -61.87487 24315 ft 496 kts 137°
2026-04-25 20:52 -31.68105 -61.83437 23536 ft 491 kts 137°
2026-04-25 20:52 -31.70353 -61.80446 22969 ft 486 kts 136°
2026-04-25 20:53 -31.72607 -61.77444 22441 ft 482 kts 136°
2026-04-25 20:53 -31.74816 -61.74501 21912 ft 477 kts 136°
2026-04-25 20:53 -31.76992 -61.71598 21395 ft 472 kts 136°
2026-04-25 20:53 -31.79133 -61.68740 20909 ft 467 kts 136°
2026-04-25 20:54 -31.81281 -61.65873 20370 ft 463 kts 135°
2026-04-25 20:54 -31.83401 -61.63038 19833 ft 458 kts 135°
2026-04-25 20:54 -31.85486 -61.60247 19348 ft 453 kts 135°
2026-04-25 20:54 -31.87587 -61.57515 18863 ft 446 kts 138°
2026-04-25 20:55 -31.89836 -61.55035 18354 ft 439 kts 144°
2026-04-25 20:55 -31.92193 -61.52860 17894 ft 431 kts 148°
2026-04-25 20:55 -31.94624 -61.50766 17445 ft 425 kts 149°
2026-04-25 20:55 -31.96980 -61.48759 16997 ft 420 kts 149°
2026-04-25 20:56 -31.99340 -61.46743 16582 ft 408 kts 148°
2026-04-25 20:56 -32.01609 -61.44792 16190 ft 396 kts 148°
2026-04-25 20:56 -32.03828 -61.42878 15813 ft 390 kts 148°
2026-04-25 20:56 -32.06017 -61.40990 15418 ft 388 kts 148°
2026-04-25 20:57 -32.08187 -61.39113 15041 ft 386 kts 148°
2026-04-25 20:57 -32.10352 -61.37241 14946 ft 385 kts 148°
2026-04-25 20:57 -32.12498 -61.35381 14944 ft 385 kts 148°
2026-04-25 20:57 -32.14661 -61.33502 14940 ft 386 kts 147°
2026-04-25 20:58 -32.16853 -61.31598 14943 ft 387 kts 147°
2026-04-25 20:58 -32.19033 -61.29704 14945 ft 386 kts 147°
2026-04-25 20:58 -32.21186 -61.27831 14945 ft 386 kts 147°
2026-04-25 20:58 -32.23349 -61.25947 14944 ft 386 kts 147°
2026-04-25 20:59 -32.25473 -61.24095 14800 ft 374 kts 147°
2026-04-25 20:59 -32.27559 -61.22272 13942 ft 370 kts 147°
2026-04-25 20:59 -32.29602 -61.20511 12915 ft 367 kts 147°
2026-04-25 20:59 -32.31635 -61.18722 11982 ft 362 kts 141°
2026-04-25 21:00 -32.33342 -61.16575 11190 ft 353 kts 131°
2026-04-25 21:00 -32.34339 -61.15110 10856 ft 340 kts 130°
2026-04-25 21:00 -32.37563 -61.10318 9824 ft 303 kts 130°
2026-04-25 21:01 -32.38895 -61.08406 9302 ft 298 kts 131°
2026-04-25 21:01 -32.40217 -61.06531 9136 ft 297 kts 131°
2026-04-25 21:01 -32.41547 -61.04660 8958 ft 296 kts 131°
2026-04-25 21:01 -32.42869 -61.02806 8741 ft 295 kts 131°
2026-04-25 21:02 -32.44193 -61.00952 8455 ft 294 kts 131°
2026-04-25 21:02 -32.45519 -60.99099 8144 ft 293 kts 131°
2026-04-25 21:02 -32.46843 -60.97248 7823 ft 291 kts 131°
2026-04-25 21:02 -32.48168 -60.95396 7499 ft 289 kts 131°
2026-04-25 21:03 -32.49453 -60.93599 7177 ft 287 kts 131°
2026-04-25 21:03 -32.50741 -60.91799 6850 ft 286 kts 131°
2026-04-25 21:03 -32.52026 -60.90002 6525 ft 284 kts 131°
2026-04-25 21:03 -32.53302 -60.88213 6196 ft 281 kts 130°
2026-04-25 21:04 -32.54540 -60.86478 5875 ft 276 kts 131°
2026-04-25 21:04 -32.55768 -60.84754 5558 ft 270 kts 131°
2026-04-25 21:04 -32.56966 -60.83072 5245 ft 265 kts 131°
2026-04-25 21:04 -32.58164 -60.81393 4931 ft 260 kts 131°
2026-04-25 21:05 -32.59325 -60.79763 4627 ft 259 kts 131°
2026-04-25 21:05 -32.60491 -60.78126 4323 ft 257 kts 131°
2026-04-25 21:05 -32.61641 -60.76508 4077 ft 252 kts 131°
2026-04-25 21:05 -32.62733 -60.74975 4000 ft 240 kts 131°
2026-04-25 21:06 -32.63861 -60.73559 3905 ft 228 kts 148°
2026-04-25 21:06 -32.65327 -60.72956 3786 ft 224 kts 177°
2026-04-25 21:06 -32.66852 -60.73060 3569 ft 222 kts 189°
2026-04-25 21:06 -32.67877 -60.73277 3423 ft 221 kts 191°
2026-04-25 21:07 -32.69859 -60.73771 3253 ft 209 kts 191°
2026-04-25 21:07 -32.71225 -60.74107 3311 ft 192 kts 191°
2026-04-25 21:07 -32.72496 -60.74408 3215 ft 179 kts 191°
2026-04-25 21:07 -32.73676 -60.74679 3064 ft 169 kts 190°
2026-04-25 21:08 -32.74820 -60.74939 2848 ft 163 kts 190°
2026-04-25 21:08 -32.75930 -60.75190 2626 ft 158 kts 190°
2026-04-25 21:08 -32.76984 -60.75429 2416 ft 152 kts 190°
2026-04-25 21:08 -32.78006 -60.75660 2220 ft 149 kts 190°
2026-04-25 21:09 -32.80058 -60.76125 1859 ft 148 kts 189°
2026-04-25 21:09 -32.81082 -60.76357 1677 ft 145 kts 189°
2026-04-25 21:09 -32.82041 -60.76576 1464 ft 139 kts 189°
2026-04-25 21:10 -32.82998 -60.76793 1277 ft 137 kts 189°
2026-04-25 21:10 -32.83936 -60.77007 1090 ft 137 kts 189°
2026-04-25 21:10 -32.84889 -60.77223 912 ft 137 kts 189°
2026-04-25 21:10 -32.85825 -60.77436 732 ft 136 kts 189°
2026-04-25 21:11 -32.86768 -60.77651 552 ft 137 kts 190°
2026-04-25 21:11 -32.87704 -60.77864 372 ft 137 kts 189°
2026-04-25 21:11 -32.88646 -60.78080 195 ft 136 kts 190°
2026-04-25 21:11 -32.89585 -60.78288 89 ft 128 kts 188°
2026-04-25 21:12 -32.90331 -60.78459 94 ft 82 kts 191°
2026-04-25 21:12 -32.90725 -60.78549 95 ft 35 kts 191°
2026-04-25 21:12 -32.90951 -60.78538 94 ft 26 kts 162°
2026-04-25 21:12 -32.91030 -60.78505 94 ft 15 kts 157°
2026-04-25 21:13 -32.91158 -60.78404 92 ft 17 kts 142°
2026-04-25 21:13 -32.91256 -60.78312 90 ft 18 kts 142°
2026-04-25 21:13 -32.91351 -60.78227 88 ft 14 kts 142°
2026-04-25 21:13 -32.91430 -60.78174 87 ft 12 kts 179°
2026-04-25 21:14 -32.91514 -60.78199 88 ft 12 kts 200°
2026-04-25 21:14 -32.91571 -60.78208 88 ft 8 kts 141°
2026-04-25 21:14 -32.91605 -60.78151 87 ft 6 kts 153°
2026-04-25 21:14 -32.91622 -60.78122 87 ft 2 kts 112°
2026-04-25 21:15 -32.91624 -60.78115 87 ft 0 kts 111°